Lobo

Jump to table bottom
Date/Time Temp deg F RH % 24 Hr Snow (in) Snow Depth (in) SWE (in)
01/20 23:00 11.7 82 0.0 39.5 0.00
01/20 22:00 11.8 83 0.0 39.5 0.00
01/20 21:00 12.7 79 0.0 39.7 0.00
01/20 20:00 12.0 82 -0.1 39.3 0.00
01/20 19:00 13.3 80 -0.0 39.5 0.00
01/20 18:00 13.8 81 -0.0 39.4 0.00
01/20 17:00 15.5 69 -0.0 39.4 0.00
01/20 16:00 18.1 62 0.4 39.6 0.00
01/20 15:00 18.9 63 0.4 39.5 0.00
01/20 14:00 17.4 64 0.2 39.3 0.00
01/20 13:00 18.1 70 0.1 39.4 0.00
01/20 12:00 16.3 83 0.2 39.2 0.00
01/20 11:00 16.6 87 0.1 39.7 0.00
01/20 10:00 16.6 83 0.2 39.8 0.00
01/20 09:00 15.6 90 0.2 39.9 0.00
01/20 08:00 12.7 90 0.2 37.5 0.00
01/20 07:00 14.0 88 0.2 38.9 0.00
01/20 06:00 14.0 93 0.1 38.9 0.00
01/20 05:00 15.7 87 0.1 38.7 0.00
01/20 04:00 16.5 88 -0.0 39.7 0.00
01/20 03:00 16.0 92 -0.0 39.9 0.00
01/20 02:00 16.3 90 -0.0 40.1 0.00
01/20 01:00 17.8 88 -0.0 36.6 0.00
01/20 00:00 18.4 87 -0.0 39.0 0.00
01/19 23:00 18.4 88 -0.1 39.1 0.00
01/19 22:00 19.1 85 -0.0 38.9 0.00
01/19 21:00 18.9 94 -0.0 37.7 0.00
01/19 20:00 20.0 89 -0.0 37.1 0.00
01/19 19:00 20.2 90 -0.0 36.8 0.00
01/19 18:00 20.2 92 -0.0 36.9 0.00
01/19 17:00 21.1 91 -0.0 37.8 0.01
01/19 16:00 21.1 91 0.6 37.7 0.00
01/19 15:00 20.7 93 0.9 38.6 0.01
01/19 14:00 20.1 94 0.8 39.7 0.00
01/19 13:00 20.1 95 0.8 39.6 0.00
01/19 12:00 20.0 92 0.0 39.2 0.01
01/19 11:00 20.0 91 0.4 39.0 0.00
01/19 10:00 20.4 90 0.5 39.8 0.01
01/19 09:00 19.3 92 0.5 39.5 0.01
01/19 08:00 17.3 92 0.3 39.2 0.01
01/19 07:00 19.0 87 -0.1 37.6 0.00
01/19 06:00 23.1 78 0.1 39.2 0.00
01/19 05:00 24.0 80 0.1 39.3 0.00
01/19 04:00 23.3 78 0.2 39.2 0.00
01/19 03:00 20.7 67 0.1 39.1 0.00
01/19 02:00 19.7 71 0.0 39.1 0.01
01/19 01:00 20.2 71 -0.0 39.3 0.01
01/19 00:00 20.8 64 -0.0 39.4 0.00
.